Terminal Aerodrome Forecast
Issued by NWS Dodge City, KS

Home | Current Version | Previous Version | Text Only | Print | Product List | Glossary On
Versions: 1 2 3 4 5 6 7 8 9 10 11 12 13 14 15 16 17 18 19 20 21 22 23 24 25 26 27 28 29
000
FTUS43 KDDC 300520
TAFDDC
TAF
KDDC 300520Z 3006/3106 27004KT P6SM SKC
     FM302000 18010G16KT P6SM SKC
     FM310100 16010KT P6SM SKC=

USA.gov is the U.S. government's official web portal to all federal, state and local government web resources and services.